San Luis Obispo, CA

9:46 PM PST on February 21, 2018 (GMT -0800)
San Luis Obispo County-McChesney

Weather History for KSBP - January, 2014

Change the Weather History Date:

Sunday, January 12, 2014

  Actual Average Record
Temperature  
Mean Temperature 60 °F -  
Max Temperature 68 °F 62 °F 81 °F (2009)
Min Temperature 53 °F 42 °F 15 °F (1963)
Degree Days  
Heating Degree Days 4    
Growing Degree Days 10 (Base 50)    
Moisture  
Dew Point 36 °F    
Average Humidity 46    
Maximum Humidity 67    
Minimum Humidity 26    
Precipitation  
Precipitation 0.00 in - - ()
Sea Level Pressure  
Sea Level Pressure 30.22 in    
Wind  
Wind Speed 10 mph (North)    
Max Wind Speed 22 mph    
Max Gust Speed 26 mph    
Visibility 10 miles    
Events      
Averages and records for this station are not official NWS values.
T = Trace of Precipitation, MM = Missing Value Source: NWS Daily Summary

Daily Weather History Graph

Daily Weather History Graph

Search for Another Location

Airport or City:

Trip Planner

Search our weather history database for the weather conditions in past years. The results will help you decide how hot, cold, wet, or windy it might be!

Date:

Astronomy

Jan. 12, 2014 Rise Set
Actual Time 7:11 AM PST 5:10 PM PST
Civil Twilight 6:43 AM PST 5:38 PM PST
Nautical Twilight 6:12 AM PST 6:09 PM PST
Astronomical Twilight 5:41 AM PST 6:40 PM PST
Moon 2:42 PM PST (1/12) 4:15 AM PST (1/12)
Length of Visible Light 10h 55m
Length of Day
9h 59m
Waxing Gibbous, 90% of the Moon is Illuminated
Jan 12
Waxing Gibbous
Jan 15
Full
Jan 23
Last Quarter
Jan 30
New
Feb 6
First Quarter

Hourly Weather History & Observations

Time (PST) Temp. Dew Point Humidity Pressure Visibility Wind Dir Wind Speed Gust Speed Precip Events Conditions
12:56 AM 57.9 °F 46.0 °F 65% 30.18 in 10.0 mi North 10.4 mph 24.2 mph N/A   Clear
1:56 AM 55.9 °F 45.0 °F 67% 30.19 in 10.0 mi NNW 12.7 mph 19.6 mph N/A   Clear
2:56 AM 55.0 °F 44.1 °F 67% 30.19 in 10.0 mi NNW 20.7 mph 26.5 mph N/A   Clear
3:56 AM 55.0 °F 41.0 °F 59% 30.20 in 10.0 mi NW 21.9 mph 25.3 mph N/A   Clear
4:56 AM 53.1 °F 41.0 °F 64% 30.19 in 10.0 mi NNE 11.5 mph 19.6 mph N/A   Clear
5:56 AM 53.1 °F 41.0 °F 64% 30.19 in 10.0 mi NNW 11.5 mph 23.0 mph N/A   Clear
6:56 AM 53.1 °F 41.0 °F 64% 30.20 in 10.0 mi North 8.1 mph - N/A   Clear
7:56 AM 55.0 °F 39.9 °F 57% 30.22 in 10.0 mi North 6.9 mph - N/A   Scattered Clouds
8:56 AM 57.0 °F 39.0 °F 51% 30.25 in 10.0 mi NNW 16.1 mph - N/A   Scattered Clouds
9:56 AM 59.0 °F 39.0 °F 48% 30.27 in 10.0 mi Variable 5.8 mph 18.4 mph N/A   Clear
10:56 AM 62.1 °F 37.9 °F 41% 30.25 in 10.0 mi NW 10.4 mph - N/A   Mostly Cloudy
11:56 AM 66.0 °F 36.0 °F 33% 30.21 in 10.0 mi NNW 11.5 mph 19.6 mph N/A   Scattered Clouds
12:56 PM 68.0 °F 34.0 °F 28% 30.19 in 10.0 mi NE 5.8 mph 21.9 mph N/A   Scattered Clouds
1:56 PM 66.9 °F 30.9 °F 26% 30.19 in 10.0 mi ENE 11.5 mph 20.7 mph N/A   Scattered Clouds
2:56 PM 64.9 °F 30.9 °F 28% 30.20 in 10.0 mi NE 3.5 mph 19.6 mph N/A   Clear
3:56 PM 64.0 °F 34.0 °F 33% 30.21 in 10.0 mi ENE 9.2 mph - N/A   Scattered Clouds
4:56 PM 62.1 °F 33.1 °F 34% 30.22 in 10.0 mi NNE 9.2 mph - N/A   Clear
5:56 PM 55.9 °F 30.9 °F 39% 30.23 in 10.0 mi Variable 3.5 mph - N/A   Clear
6:56 PM 59.0 °F 28.0 °F 31% 30.24 in 10.0 mi North 6.9 mph 16.1 mph N/A   Clear
7:56 PM 57.0 °F 28.9 °F 34% 30.25 in 10.0 mi Calm Calm - N/A   Clear
8:56 PM 59.0 °F 30.9 °F 35% 30.26 in 10.0 mi Calm Calm - N/A   Clear
9:56 PM 57.0 °F 34.0 °F 42% 30.27 in 10.0 mi NNE 8.1 mph - N/A   Clear
10:56 PM 55.0 °F 33.1 °F 43% 30.25 in 10.0 mi SSW 3.5 mph - N/A   Clear
11:56 PM 54.0 °F 32.0 °F 43% 30.25 in 10.0 mi SSW 3.5 mph - N/A   Clear